Weather History for Cody, WY

Change the Weather History Date:

Friday, February 15, 2013

  Actual Average Record
Temperature  
Mean Temperature -2 °C -  
Max Temperature 6 °C 2 °C 16 °C (1951)
Min Temperature -9 °C -10 °C -32 °C (1936)
Degree Days  
Heating Degree Days 36    
Moisture  
Dew Point -7 °C    
Average Humidity 81    
Maximum Humidity 100    
Minimum Humidity 39    
Precipitation  
Precipitation 0.00 mm - - ()
Sea Level Pressure  
Sea Level Pressure 1024 hPa    
Wind  
Wind Speed 6 km/h (SW)    
Max Wind Speed 21 km/h    
Max Gust Speed 27 km/h    
Visibility 14 kilometers    
Events      
Averages and records for this station are not official NWS values.
T = Trace of Precipitation, MM = Missing Value Source: NWS Daily Summary

Daily Weather History Graph

Daily Weather History Graph

Search for Another Location

Airport:

Trip Planner

Search our weather history database for the weather conditions in past years. The results will help you decide how hot, cold, wet, or windy it might be!

Date:

Astronomy

Feb. 15, 2013 Rise Set
Actual Time 7:15 AM MST 5:45 PM MST
Civil Twilight 6:45 AM MST 6:15 PM MST
Nautical Twilight 6:11 AM MST 6:49 PM MST
Astronomical Twilight 5:38 AM MST 7:23 PM MST
Moon 9:38 AM MST (2/15) No Moon Set
Length of Visible Light 11h 29m
Length of Day
10h 29m
Waxing Crescent, 31% of the Moon is Illuminated
Feb 15
Waxing Crescent
Feb 17
First Quarter
Feb 25
Full
Mar 4
Last Quarter
Mar 11
New

Hourly Weather History & Observations

Time (MST) Temp. Windchill Dew Point Humidity Pressure Visibility Wind Dir Wind Speed Gust Speed Precip Events Conditions
12:15 AM -6.0 °C - -7.0 °C 93% 1023.6 hPa 16.1 km Calm Calm - N/A   Mostly Cloudy
12:35 AM -6.0 °C - -7.0 °C 93% 1023.9 hPa 6.4 km Calm Calm - N/A   Overcast
12:55 AM -6.0 °C -8.7 °C -7.0 °C 93% 1023.9 hPa 4.8 km North 5.6 km/h / 1.5 m/s - N/A   Overcast
1:15 AM -6.0 °C -8.7 °C -6.0 °C 100% 1023.9 hPa 4.0 km North 5.6 km/h / 1.5 m/s - N/A   Overcast
1:35 AM -6.0 °C -8.7 °C -6.0 °C 100% 1023.9 hPa 3.2 km North 5.6 km/h / 1.5 m/s - N/A   Overcast
1:55 AM -6.0 °C -9.5 °C -7.0 °C 93% 1023.9 hPa 4.8 km North 7.4 km/h / 2.1 m/s - N/A   Overcast
2:15 AM -6.0 °C - -7.0 °C 93% 1023.9 hPa 6.4 km Calm Calm - N/A   Overcast
2:35 AM -7.0 °C -9.8 °C -7.0 °C 100% 1023.9 hPa 16.1 km ENE 5.6 km/h / 1.5 m/s - N/A   Mostly Cloudy
2:55 AM -6.0 °C -9.5 °C -7.0 °C 93% 1023.9 hPa 16.1 km ESE 7.4 km/h / 2.1 m/s - N/A   Overcast
3:15 AM -6.0 °C -8.7 °C -7.0 °C 93% 1023.9 hPa 16.1 km SSE 5.6 km/h / 1.5 m/s - N/A   Overcast
3:35 AM -6.0 °C -10.2 °C -7.0 °C 93% 1023.6 hPa 16.1 km South 9.3 km/h / 2.6 m/s - N/A   Overcast
3:55 AM -6.0 °C - -7.0 °C 93% 1023.6 hPa 16.1 km Calm Calm - N/A   Overcast
4:15 AM -7.0 °C -10.7 °C -7.0 °C 100% 1023.9 hPa 16.1 km NE 7.4 km/h / 2.1 m/s - N/A   Overcast
4:35 AM -7.0 °C - -7.0 °C 100% 1024.3 hPa 16.1 km Calm Calm - N/A   Overcast
5:15 AM -6.0 °C -9.5 °C -7.0 °C 93% 1024.6 hPa 16.1 km West 7.4 km/h / 2.1 m/s - N/A   Overcast
5:35 AM -5.0 °C -9.6 °C -7.0 °C 86% 1024.3 hPa 16.1 km WSW 11.1 km/h / 3.1 m/s - N/A   Overcast
5:55 AM -4.0 °C -6.4 °C -7.0 °C 80% 1024.6 hPa 16.1 km WSW 5.6 km/h / 1.5 m/s - N/A   Overcast
6:16 AM -4.0 °C -7.2 °C -6.0 °C 86% 1024.6 hPa 16.1 km West 7.4 km/h / 2.1 m/s - N/A   Overcast
6:35 AM -4.0 °C -7.8 °C -7.0 °C 80% 1024.6 hPa 16.1 km WSW 9.3 km/h / 2.6 m/s - N/A   Overcast
6:55 AM -6.0 °C -10.2 °C -8.0 °C 86% 1024.9 hPa 16.1 km South 9.3 km/h / 2.6 m/s - N/A   Mostly Cloudy
7:15 AM -8.0 °C -14.6 °C -9.0 °C 93% 1025.3 hPa 16.1 km NNE 16.7 km/h / 4.6 m/s - N/A   Scattered Clouds
7:35 AM -8.0 °C - -9.0 °C 93% 1025.6 hPa 11.3 km Calm Calm - N/A   Scattered Clouds
7:55 AM -8.0 °C - -9.0 °C 93% 1025.6 hPa 1.2 km Calm Calm - N/A   Mostly Cloudy
8:15 AM -8.0 °C - -8.0 °C 100% 1026.0 hPa 16.1 km Calm Calm - N/A   Clear
8:35 AM -9.0 °C -13.8 °C -10.0 °C 93% 1026.0 hPa 14.5 km South 9.3 km/h / 2.6 m/s - N/A   Clear
9:15 AM -8.0 °C -11.0 °C -9.0 °C 93% 1026.3 hPa 16.1 km South 5.6 km/h / 1.5 m/s - N/A   Clear
9:35 AM -8.0 °C -11.0 °C -9.0 °C 93% 1026.3 hPa 16.1 km South 5.6 km/h / 1.5 m/s - N/A   Clear
9:55 AM -6.0 °C -8.7 °C -7.0 °C 93% 1026.0 hPa 16.1 km SSE 5.6 km/h / 1.5 m/s - N/A   Clear
10:55 AM -2.0 °C - -6.0 °C 74% 1026.0 hPa 16.1 km Calm Calm - N/A   Clear
11:35 AM -1.0 °C - -6.0 °C 69% 1025.3 hPa 16.1 km Calm Calm - N/A   Clear
11:55 AM 0.0 °C -3.1 °C -5.0 °C 69% 1024.9 hPa 16.1 km SE 9.3 km/h / 2.6 m/s - N/A   Clear
12:15 PM 1.0 °C -3.1 °C -5.0 °C 65% 1024.6 hPa 16.1 km SSE 14.8 km/h / 4.1 m/s - N/A   Clear
12:35 PM 2.0 °C -0.7 °C -4.0 °C 65% 1023.9 hPa 16.1 km SE 9.3 km/h / 2.6 m/s - N/A   Clear
12:55 PM 4.0 °C 0.6 °C -6.0 °C 49% 1023.9 hPa 16.1 km West 14.8 km/h / 4.1 m/s 27.8 km/h / 7.7 m/s N/A   Clear
1:15 PM 4.0 °C 0.6 °C -6.0 °C 49% 1023.6 hPa 16.1 km West 14.8 km/h / 4.1 m/s - N/A   Clear
1:35 PM 4.0 °C 0.3 °C -6.0 °C 49% 1023.2 hPa 16.1 km West 16.7 km/h / 4.6 m/s - N/A   Clear
1:55 PM 5.0 °C 1.0 °C -7.0 °C 42% 1022.9 hPa 16.1 km West 20.4 km/h / 5.7 m/s 27.8 km/h / 7.7 m/s N/A   Clear
2:15 PM 6.0 °C 2.8 °C -7.0 °C 39% 1022.9 hPa 16.1 km West 16.7 km/h / 4.6 m/s 25.9 km/h / 7.2 m/s N/A   Clear
2:35 PM 6.0 °C 4.0 °C -7.0 °C 39% 1022.6 hPa 16.1 km ENE 9.3 km/h / 2.6 m/s - N/A   Clear
2:55 PM 4.0 °C -0.2 °C -4.0 °C 56% 1022.9 hPa 16.1 km NE 20.4 km/h / 5.7 m/s - N/A   Clear
3:15 PM 3.0 °C -1.2 °C -3.0 °C 65% 1022.9 hPa 16.1 km ENE 18.5 km/h / 5.1 m/s - N/A   Clear